Weather WX

World > North America > United States > Ohio

Gomer, Ohio Regional Weather

Lat: 40.84N, Lon: 84.19W
Wx Zone: OHZ025
Warning FLW WEATHER ALERT - FLASH FLOOD WATCH (More Info. Click Here) Warning
Feedback

Gomer, OH Regional Weather

Expires:201906202200;;806147
ASUS41 KCLE 202112
RWRCLE
OHIO REGIONAL WEATHER ROUNDUP
NATIONAL WEATHER SERVICE WILMINGTON, OH
500 PM EDT THU JUN 20 2019

NOTE: "FAIR" INDICATES FEW OR NO CLOUDS BELOW 12,000 FEET WITH NO
SIGNIFICANT WEATHER AND/OR OBSTRUCTIONS TO VISIBILITY.


OHZ001>008-015>018-024>027-034-035-043-044-202200-
   NORTHWEST OHIO
  
CITY           SKY/WX    TMP DP  RH WIND       PRES   REMARKS
DEFIANCE       CLOUDY    66  61  84 N15       29.65R                  
FINDLAY        CLOUDY    68  65  90 N15       29.57R                  
TOLEDO EXPRESS LGT RAIN  66  61  84 N15G22    29.62R                  
TOLEDO EXEC    RAIN      63  62  97 N8G18     29.62R VSB 1            
LIMA           LGT RAIN  67  65  93 NW9       29.59R FOG              
$$
 

SKY/WX - Weather  TMP - Temperature  DP - Dew Point  RH - Relative Humidity
WIND - Wind Direction/Speed PRES - Barometric Pressure VSB - Visibility
WCI - Wind Chill Index E13G22 Wind - East Wind 13 mph/Gusts of 22 mph